When you browse on this site, cookies collect data to enhance your experience and personalize the content and advertising you see.
Visit our Privacy Policy to learn more. By continuing to use the site, you agree to this use of cookies and data.
  • In United Kingdom
  • List of Countries
  • For 7 days
  • Water Temperature
  • Satellite Maps
  • Weather Map
  • Weather Widgets
  • user-avatar
    Login

    Hourly Weather Sydney

    Today, 19 June, Wednesday

    Time Temperature Precipitation Wind Pressure Humidity
    00:00 +10°C° 0 mm 5 mps 763 mmHg 71%
    01:00 +9°C° 0 mm 5 mps 763 mmHg 74%
    02:00 +9°C° 0 mm 5 mps 763 mmHg 74%
    03:00 +8°C° 0 mm 5 mps 763 mmHg 75%
    04:00 +8°C° 0 mm 4 mps 763 mmHg 75%
    05:00 +8°C° 0 mm 4 mps 764 mmHg 76%
    06:00 +7°C° 0 mm 4 mps 764 mmHg 76%
    07:00 +7°C° 0 mm 4 mps 765 mmHg 76%
    08:00 +8°C° 0 mm 5 mps 765 mmHg 69%
    09:00 +10°C° 0 mm 5 mps 765 mmHg 62%
    10:00 +13°C° 0 mm 4 mps 765 mmHg 52%
    11:00 +14°C° 0 mm 4 mps 765 mmHg 50%
    12:00 +15°C° 0 mm 4 mps 764 mmHg 47%
    13:00 +17°C° 0 mm 4 mps 764 mmHg 44%
    14:00 +17°C° 0 mm 4 mps 764 mmHg 46%
    15:00 +15°C° 0 mm 5 mps 764 mmHg 47%
    16:00 +15°C° 0 mm 4 mps 765 mmHg 44%
    17:00 +13°C° 0 mm 4 mps 765 mmHg 48%
    18:00 +12°C° 0 mm 4 mps 766 mmHg 52%
    19:00 +11°C° 0 mm 3 mps 766 mmHg 56%
    20:00 +10°C° 0 mm 3 mps 767 mmHg 59%
    21:00 +10°C° 0 mm 3 mps 767 mmHg 61%
    22:00 +9°C° 0 mm 3 mps 767 mmHg 62%
    23:00 +9°C° 0 mm 3 mps 767 mmHg 63%

    Tomorrow, 20 June, Thursday

    Time Temperature Precipitation Wind Pressure Humidity
    00:00 +8°C° 0 mm 3 mps 767 mmHg 63%
    01:00 +7°C° 0 mm 4 mps 767 mmHg 64%
    02:00 +7°C° 0.1 mm 4 mps 767 mmHg 64%
    03:00 +7°C° 0.1 mm 4 mps 767 mmHg 63%
    04:00 +7°C° 0.1 mm 4 mps 767 mmHg 62%
    05:00 +7°C° 0.1 mm 4 mps 767 mmHg 63%
    06:00 +7°C° 0.1 mm 4 mps 767 mmHg 64%
    07:00 +7°C° 0.1 mm 4 mps 768 mmHg 65%
    08:00 +8°C° 0 mm 4 mps 767 mmHg 62%
    09:00 +10°C° 0 mm 4 mps 767 mmHg 58%
    10:00 +11°C° 0 mm 3 mps 767 mmHg 55%
    11:00 +12°C° 0 mm 3 mps 767 mmHg 55%
    12:00 +13°C° 0 mm 3 mps 766 mmHg 54%
    13:00 +14°C° 0 mm 3 mps 765 mmHg 54%
    14:00 +14°C° 0.1 mm 3 mps 765 mmHg 58%
    15:00 +13°C° 0.1 mm 3 mps 765 mmHg 61%
    16:00 +14°C° 0.1 mm 2 mps 765 mmHg 65%
    17:00 +13°C° 0 mm 2 mps 765 mmHg 68%
    18:00 +13°C° 0 mm 2 mps 765 mmHg 70%
    19:00 +12°C° 0 mm 2 mps 765 mmHg 72%
    20:00 +12°C° 0.1 mm 2 mps 765 mmHg 74%
    21:00 +10°C° 0.1 mm 2 mps 765 mmHg 75%
    22:00 +10°C° 0.1 mm 2 mps 766 mmHg 77%
    23:00 +10°C° 0.2 mm 3 mps 765 mmHg 79%

    Day after tomorrow, 21 June, Friday

    Time Temperature Precipitation Wind Pressure Humidity
    00:00 +9°C° 0.2 mm 3 mps 765 mmHg 82%
    01:00 +8°C° 0.2 mm 4 mps 765 mmHg 84%
    02:00 +7°C° 0.1 mm 4 mps 765 mmHg 81%
    03:00 +7°C° 0.1 mm 5 mps 765 mmHg 79%
    04:00 +7°C° 0.1 mm 5 mps 765 mmHg 77%
    05:00 +6°C° 0 mm 5 mps 765 mmHg 75%
    06:00 +6°C° 0 mm 5 mps 765 mmHg 72%
    07:00 +5°C° 0 mm 5 mps 766 mmHg 70%
    08:00 +6°C° 0 mm 5 mps 766 mmHg 65%
    09:00 +7°C° 0 mm 5 mps 766 mmHg 60%
    10:00 +9°C° 0 mm 5 mps 766 mmHg 55%
    11:00 +10°C° 0 mm 5 mps 766 mmHg 49%
    12:00 +13°C° 0 mm 5 mps 765 mmHg 43%
    13:00 +14°C° 0 mm 5 mps 765 mmHg 37%
    14:00 +14°C° 0 mm 6 mps 765 mmHg 38%
    15:00 +14°C° 0 mm 6 mps 765 mmHg 40%
    16:00 +13°C° 0 mm 6 mps 765 mmHg 41%
    17:00 +11°C° 0.1 mm 6 mps 766 mmHg 45%
    18:00 +10°C° 0.1 mm 7 mps 766 mmHg 49%
    19:00 +9°C° 0.1 mm 7 mps 767 mmHg 54%
    20:00 +8°C° 0.3 mm 7 mps 767 mmHg 56%
    21:00 +8°C° 0.3 mm 7 mps 767 mmHg 59%
    22:00 +6°C° 0.3 mm 7 mps 768 mmHg 61%
    23:00 +6°C° 0.3 mm 8 mps 768 mmHg 60%

    22 June, Saturday

    Time Temperature Precipitation Wind Pressure Humidity
    00:00 +6°C° 0.3 mm 8 mps 768 mmHg 60%
    01:00 +6°C° 0.3 mm 8 mps 768 mmHg 59%
    02:00 +6°C° 0.2 mm 8 mps 767 mmHg 61%
    03:00 +5°C° 0.2 mm 7 mps 767 mmHg 62%
    04:00 +5°C° 0.2 mm 7 mps 767 mmHg 63%
    05:00 +5°C° 0.3 mm 7 mps 768 mmHg 64%
    06:00 +5°C° 0.3 mm 7 mps 768 mmHg 65%
    07:00 +5°C° 0.3 mm 7 mps 768 mmHg 66%
    08:00 +6°C° 0.3 mm 7 mps 768 mmHg 62%
    09:00 +9°C° 0.3 mm 7 mps 768 mmHg 59%
    10:00 +11°C° 0.3 mm 7 mps 769 mmHg 56%
    11:00 +11°C° 0.3 mm 8 mps 768 mmHg 55%
    12:00 +12°C° 0.3 mm 8 mps 768 mmHg 53%
    13:00 +13°C° 0.3 mm 8 mps 767 mmHg 52%
    14:00 +13°C° 0.5 mm 8 mps 767 mmHg 54%
    15:00 +13°C° 0.5 mm 8 mps 767 mmHg 55%
    16:00 +12°C° 0.5 mm 8 mps 768 mmHg 57%
    17:00 +11°C° 0.5 mm 7 mps 768 mmHg 60%
    18:00 +10°C° 0.5 mm 7 mps 768 mmHg 64%
    19:00 +9°C° 0.5 mm 7 mps 769 mmHg 67%
    20:00 +9°C° 0.7 mm 6 mps 769 mmHg 69%
    21:00 +8°C° 0.7 mm 6 mps 769 mmHg 71%
    22:00 +8°C° 0.7 mm 6 mps 769 mmHg 73%
    23:00 +7°C° 0.6 mm 6 mps 769 mmHg 74%

    23 June, Sunday

    Time Temperature Precipitation Wind Pressure Humidity
    00:00 +7°C° 0.6 mm 6 mps 769 mmHg 75%
    01:00 +7°C° 0.6 mm 6 mps 769 mmHg 77%
    02:00 +7°C° 0.4 mm 6 mps 769 mmHg 75%
    03:00 +5°C° 0.4 mm 6 mps 769 mmHg 73%
    04:00 +5°C° 0.4 mm 7 mps 769 mmHg 71%
    05:00 +5°C° 0.6 mm 6 mps 769 mmHg 71%
    06:00 +5°C° 0.6 mm 6 mps 769 mmHg 72%
    07:00 +5°C° 0.6 mm 6 mps 769 mmHg 72%
    08:00 +7°C° 0.5 mm 6 mps 769 mmHg 68%
    09:00 +9°C° 0.5 mm 6 mps 769 mmHg 63%
    10:00 +10°C° 0.5 mm 7 mps 769 mmHg 59%
    11:00 +12°C° 0.3 mm 7 mps 769 mmHg 55%
    12:00 +14°C° 0.3 mm 6 mps 769 mmHg 52%
    13:00 +15°C° 0.3 mm 6 mps 768 mmHg 49%
    14:00 +15°C° 0.8 mm 6 mps 768 mmHg 57%
    15:00 +14°C° 0.8 mm 6 mps 768 mmHg 65%
    16:00 +13°C° 0.8 mm 5 mps 768 mmHg 73%
    17:00 +12°C° 1.1 mm 5 mps 769 mmHg 77%
    18:00 +12°C° 1.1 mm 5 mps 769 mmHg 81%
    19:00 +11°C° 1.1 mm 4 mps 770 mmHg 85%
    20:00 +11°C° 0.5 mm 4 mps 770 mmHg 85%
    21:00 +10°C° 0.5 mm 4 mps 770 mmHg 85%
    22:00 +10°C° 0.5 mm 4 mps 770 mmHg 85%
    23:00 +10°C° 0.5 mm 4 mps 770 mmHg 86%

    24 June, Monday

    Time Temperature Precipitation Wind Pressure Humidity
    00:00 +10°C° 0.5 mm 4 mps 770 mmHg 86%
    01:00 +8°C° 0.5 mm 4 mps 770 mmHg 87%
    02:00 +8°C° 0.3 mm 4 mps 770 mmHg 87%
    03:00 +10°C° 0.3 mm 4 mps 770 mmHg 87%
    04:00 +10°C° 0.3 mm 4 mps 770 mmHg 87%
    05:00 +9°C° 0.7 mm 5 mps 771 mmHg 88%
    06:00 +9°C° 0.7 mm 5 mps 771 mmHg 89%
    07:00 +9°C° 0.7 mm 5 mps 771 mmHg 90%
    08:00 +10°C° 0.3 mm 5 mps 772 mmHg 86%
    09:00 +12°C° 0.3 mm 5 mps 772 mmHg 82%
    10:00 +13°C° 0.3 mm 5 mps 772 mmHg 79%
    11:00 +14°C° 0.1 mm 5 mps 771 mmHg 74%
    12:00 +14°C° 0.1 mm 6 mps 771 mmHg 69%
    13:00 +15°C° 0.1 mm 6 mps 771 mmHg 65%
    14:00 +15°C° 0.1 mm 6 mps 770 mmHg 66%
    15:00 +15°C° 0.1 mm 6 mps 770 mmHg 68%
    16:00 +14°C° 0.1 mm 6 mps 770 mmHg 70%
    17:00 +13°C° 0.1 mm 5 mps 771 mmHg 75%
    18:00 +12°C° 0.1 mm 5 mps 771 mmHg 81%
    19:00 +11°C° 0.1 mm 4 mps 772 mmHg 87%
    20:00 +11°C° 0.3 mm 4 mps 772 mmHg 86%
    21:00 +11°C° 0.3 mm 4 mps 772 mmHg 86%
    22:00 +11°C° 0.3 mm 4 mps 772 mmHg 86%
    23:00 +11°C° 0.3 mm 4 mps 772 mmHg 86%
    Show more